Date String (YYYY-MM-DD hh:mm:ss) UTC,Instrument flags,absolute air pressure of the measurement (hPa),sample flow rate (lpm),inlet stack bypass flow (lpm),air temperature of the measurement (°C),ambient temperature measured by the external sensor (°C),aerosol sample conditioner tube jacket temperature (°C),OPC LED temperature (°C),internal box temperature (°C),relative humidity of the measurement (%),span deviation,mass concentration of particles derived from Lorenz-Mie calculation of OPC scattering (μg/m³),mass concentration of particles derived from Lorenz-Mie calculation of OPC scattering (μg/m³),mass concentration of particles derived from Lorenz-Mie calculation of OPC scattering (μg/m³)
DateTimeUTC,F1_M11,P_M11,Q1_M11,Q2_M11,T1_M11,T2_M11,T3_M11,T4_M11,T5_M11,U1_M11,ZSPAN_M11,X0_M11,X2_M11,X1_M11
2024-01-06 23:00:00,SystemResetWarning,0820.1,5.01,000.00,020.2,019.2,000.0,028.4,021.4,6.6,0000.0,0003.21,0000.97,0000.79
2024-01-06 23:01:00,SystemResetWarning,0820.0,5.00,000.00,020.2,019.2,000.0,028.4,021.4,6.7,0000.0,0003.24,0000.97,0000.79
2024-01-06 23:02:00,SystemResetWarning,0819.9,4.99,000.00,020.2,019.2,000.0,028.4,021.4,6.8,0000.0,0003.25,0000.98,0000.79
2024-01-06 23:03:00,SystemResetWarning,0820.0,5.00,000.00,020.2,019.2,000.0,028.4,021.4,6.8,0000.0,0003.28,0000.99,0000.78
2024-01-06 23:04:00,SystemResetWarning,0820.1,5.00,000.00,020.2,019.2,000.0,028.4,021.4,6.8,0000.0,0003.29,0000.99,0000.79
2024-01-06 23:05:00,SystemResetWarning,0820.2,5.00,000.00,020.2,019.2,000.0,028.4,021.4,6.8,0000.0,0003.21,0000.98,0000.78
2024-01-06 23:06:00,SystemResetWarning,0819.9,4.99,000.00,020.2,019.2,000.0,028.4,021.4,6.8,0000.0,0003.02,0000.94,0000.77
2024-01-06 23:07:00,SystemResetWarning,0820.0,5.01,000.00,020.2,019.2,000.0,028.4,021.4,6.8,0000.0,0003.05,0000.95,0000.77
2024-01-06 23:08:00,SystemResetWarning,0820.0,5.01,000.00,020.2,019.2,000.0,028.4,021.4,6.8,0000.0,0003.17,0000.98,0000.77
2024-01-06 23:09:00,SystemResetWarning,0820.1,5.01,000.00,020.2,019.2,000.0,028.4,021.5,6.8,0000.0,0003.20,0000.99,0000.76
2024-01-06 23:10:00,SystemResetWarning,0820.0,5.00,000.00,020.2,019.2,000.0,028.4,021.5,6.8,0000.0,0001.91,0000.99,0000.76
2024-01-06 23:11:00,SystemResetWarning,0819.9,4.99,000.00,020.2,019.2,000.0,028.4,021.4,6.8,0000.0,0001.64,0001.01,0000.76
2024-01-06 23:12:00,SystemResetWarning,0819.9,4.99,000.00,020.2,019.2,000.0,028.4,021.4,6.8,0000.0,0001.80,0001.02,0000.75
2024-01-06 23:13:00,SystemResetWarning,0820.0,5.00,000.00,020.2,019.2,000.0,028.4,021.4,6.8,0000.0,0002.41,0001.06,0000.75
2024-01-06 23:14:00,SystemResetWarning,0820.0,5.01,000.00,020.2,019.2,000.0,028.4,021.4,6.8,0000.0,0002.62,0001.11,0000.75
2024-01-06 23:15:00,SystemResetWarning,0819.9,5.01,000.00,020.2,019.1,000.0,028.4,021.4,6.8,0000.0,0002.65,0001.13,0000.74
2024-01-06 23:16:00,SystemResetWarning,0819.9,5.00,000.00,020.1,019.1,000.0,028.4,021.4,6.8,0000.0,0002.66,0001.12,0000.74
2024-01-06 23:17:00,SystemResetWarning,0819.8,5.00,000.00,020.1,019.1,000.0,028.4,021.4,6.8,0000.0,0002.68,0001.13,0000.74
2024-01-06 23:18:00,SystemResetWarning,0819.8,5.00,000.00,020.2,019.1,000.0,028.4,021.4,6.9,0000.0,0002.68,0001.10,0000.73
2024-01-06 23:19:00,SystemResetWarning,0819.9,5.00,000.00,020.2,019.1,000.0,028.4,021.4,6.9,0000.0,0002.72,0001.09,0000.73
2024-01-06 23:20:00,SystemResetWarning,0820.0,5.00,000.00,020.2,019.1,000.0,028.4,021.3,6.9,0000.0,0002.63,0001.07,0000.73
2024-01-06 23:21:00,SystemResetWarning,0819.8,5.00,000.00,020.2,019.0,000.0,028.4,021.3,6.8,0000.0,0002.68,0001.08,0000.73
2024-01-06 23:22:00,SystemResetWarning,0820.0,4.99,000.00,020.1,019.0,000.0,028.4,021.3,6.9,0000.0,0002.66,0001.07,0000.73
2024-01-06 23:23:00,SystemResetWarning,0820.0,5.00,000.00,020.1,019.0,000.0,028.4,021.3,6.9,0000.0,0002.65,0001.08,0000.74
2024-01-06 23:24:00,SystemResetWarning,0819.9,5.00,000.00,020.1,019.0,000.0,028.4,021.3,6.9,0000.0,0002.09,0001.06,0000.73
2024-01-06 23:25:00,SystemResetWarning,0819.8,5.00,000.00,020.1,019.0,000.0,028.4,021.3,6.9,0000.0,0001.88,0001.03,0000.73
2024-01-06 23:26:00,SystemResetWarning,0820.1,5.00,000.00,020.1,019.0,000.0,028.4,021.3,6.9,0000.0,0001.79,0000.98,0000.73
2024-01-06 23:27:00,SystemResetWarning,0820.0,5.00,000.00,020.1,018.9,000.0,028.4,021.3,6.9,0000.0,0001.81,0001.00,0000.74
2024-01-06 23:28:00,SystemResetWarning,0819.9,5.00,000.00,020.1,018.9,000.0,028.4,021.2,6.9,0000.0,0001.83,0001.02,0000.74
2024-01-06 23:29:00,SystemResetWarning,0820.0,5.00,000.00,020.1,018.9,000.0,028.4,021.2,6.9,0000.0,0001.77,0001.02,0000.74
2024-01-06 23:30:00,SystemResetWarning,0819.9,5.00,000.00,020.1,018.9,000.0,028.4,021.2,6.9,0000.0,0001.62,0001.00,0000.74
2024-01-06 23:31:00,SystemResetWarning,0819.8,5.00,000.00,020.1,018.9,000.0,028.4,021.2,6.9,0000.0,0001.62,0001.00,0000.74
2024-01-06 23:32:00,SystemResetWarning,0819.9,5.00,000.00,020.0,018.9,000.0,028.4,021.2,6.9,0000.0,0001.56,0000.98,0000.74
2024-01-06 23:33:00,SystemResetWarning,0819.8,5.00,000.00,020.0,018.9,000.0,028.4,021.2,6.9,0000.0,0001.54,0000.97,0000.73
2024-01-06 23:34:00,SystemResetWarning,0819.9,4.99,000.00,020.0,018.8,000.0,028.4,021.2,6.9,0000.0,0001.51,0000.96,0000.73
2024-01-06 23:35:00,SystemResetWarning,0819.8,5.00,000.00,020.0,018.8,000.0,028.3,021.1,7.0,0000.0,0001.41,0000.95,0000.73
2024-01-06 23:36:00,SystemResetWarning,0820.0,5.01,000.00,020.0,018.8,000.0,028.3,021.1,7.0,0000.0,0001.34,0000.92,0000.74
2024-01-06 23:37:00,SystemResetWarning,0819.8,5.00,000.00,020.0,018.8,000.0,028.3,021.1,7.0,0000.0,0001.32,0000.91,0000.74
2024-01-06 23:38:00,SystemResetWarning,0819.8,4.99,000.00,020.0,018.7,000.0,028.3,021.1,7.0,0000.0,0001.26,0000.89,0000.73
2024-01-06 23:39:00,SystemResetWarning,0819.8,4.99,000.00,020.0,018.7,000.0,028.3,021.1,7.0,0000.0,0001.19,0000.86,0000.73
2024-01-06 23:40:00,SystemResetWarning,0819.8,5.00,000.00,020.0,018.7,000.0,028.3,021.1,7.0,0000.0,0001.18,0000.85,0000.72
2024-01-06 23:41:00,SystemResetWarning,0819.8,5.00,000.00,019.9,018.7,000.0,028.3,021.1,7.0,0000.0,0001.16,0000.84,0000.72
2024-01-06 23:42:00,SystemResetWarning,0819.7,5.00,000.00,019.9,018.7,000.0,028.3,021.1,7.0,0000.0,0001.13,0000.82,0000.72
2024-01-06 23:43:00,SystemResetWarning,0819.7,5.00,000.00,019.9,018.7,000.0,028.3,021.1,7.0,0000.0,0001.27,0000.84,0000.73
2024-01-06 23:44:00,SystemResetWarning,0819.8,5.01,000.00,019.9,018.7,000.0,028.3,021.0,7.0,0000.0,0001.29,0000.86,0000.73
2024-01-06 23:45:00,SystemResetWarning,0819.8,5.01,000.00,019.9,018.7,000.0,028.2,021.0,7.0,0000.0,0001.29,0000.85,0000.72
2024-01-06 23:46:00,SystemResetWarning,0819.8,5.00,000.00,019.9,018.7,000.0,028.2,021.0,7.0,0000.0,0001.29,0000.85,0000.72
2024-01-06 23:47:00,SystemResetWarning,0819.8,5.00,000.00,019.9,018.6,000.0,028.2,021.0,7.0,0000.0,0001.37,0000.88,0000.72
2024-01-06 23:48:00,SystemResetWarning,0819.8,4.99,000.00,019.9,018.6,000.0,028.2,021.0,6.9,0000.0,0001.43,0000.91,0000.72
2024-01-06 23:49:00,SystemResetWarning,0819.8,4.99,000.00,019.8,018.6,000.0,028.2,021.0,7.0,0000.0,0001.46,0000.92,0000.71
2024-01-06 23:50:00,SystemResetWarning,0819.8,5.00,000.00,019.8,018.6,000.0,028.2,021.0,6.9,0000.0,0001.64,0000.93,0000.70
2024-01-06 23:51:00,SystemResetWarning,0819.8,5.00,000.00,019.8,018.6,000.0,028.2,021.0,6.9,0000.0,0002.44,0000.97,0000.71
2024-01-06 23:52:00,SystemResetWarning,0820.1,5.01,000.00,019.8,018.6,000.0,028.2,020.9,6.9,0000.0,0002.58,0000.99,0000.71
2024-01-06 23:53:00,SystemResetWarning,0819.8,5.00,000.00,019.8,018.6,000.0,028.2,020.9,6.9,0000.0,0002.59,0001.00,0000.70
2024-01-06 23:54:00,SystemResetWarning,0820.0,5.00,000.00,019.8,018.6,000.0,028.1,020.9,6.9,0000.0,0002.47,0000.99,0000.70
2024-01-06 23:55:00,SystemResetWarning,0820.0,5.00,000.00,019.8,018.6,000.0,028.1,020.9,6.9,0000.0,0002.42,0000.97,0000.68
2024-01-06 23:56:00,SystemResetWarning,0819.8,5.00,000.00,019.8,018.6,000.0,028.1,020.9,6.9,0000.0,0002.93,0000.97,0000.68
2024-01-06 23:57:00,SystemResetWarning,0819.9,4.99,000.00,019.7,018.6,000.0,028.1,020.8,6.9,0000.0,0003.33,0000.99,0000.69
2024-01-06 23:58:00,SystemResetWarning,0819.9,5.00,000.00,019.7,018.6,000.0,028.1,020.8,6.9,0000.0,0003.23,0000.96,0000.69
2024-01-06 23:59:00,SystemResetWarning,0820.1,5.00,000.00,019.7,018.6,000.0,028.1,020.7,6.9,0000.0,0003.25,0000.96,0000.69
